Content
SEND FEEDBACK

Daily
Averages
Monthly
Summary
Canada

DRUMHELLER, ALBERTA


Home > North America > Canada > Alberta
Elevation: 2254 feet     Latitude: 51 28N     Longitude: 112 43W

WEATHER
 
SELECT A DAY
Number of Records: 138,422;   Date Range: 1/1/95 - 9/16/14
 
SHARE

PRINT THIS DATA

[ ← Previous Day ]
WEATHER ALMANAC - MAY 9, 2013
[ Next Day → ]
[ °C ]   °F
Weather ElementAverageHighLow
Temperature62.7 °F81.3 °F (5:00 pm)42.6 °F (6:00 am)
Dewpoint27 °F31.6 °F (11:00 am)22.1 °F (3:00 pm)
Humidity29.5 %58 % (6:00 am)11 % (12:00 pm)
Barometer30.05 in30.14 in (4:00 am)29.92 in (6:00 pm)
Wind Speed6.9 mph12.7 mph (1:00 am)
Weather ElementAverage
Wind DirectionSSE (142.3 °)

Weather ElementTotal
Precipitation---
Heating Degree Days3.1 (Base 65)
Growing Degree Days12 (Base 50)
Averaged from 26 records on May 9, 2013
WEATHER CONDITIONS BREAKOUT
WIND DIRECTION BREAKOUT
WEATHER BY HOUR - MAY 9, 2013
[ °C ]   °F
Local TimeTemperatureDewpointHumidityBarometerVisibilityWind DirectionWind SpeedGust SpeedPrecipitationEventsConditions
12:00 AM53.2 °F28.6 °F39 %30.12 inSE (140°)11.5 mph
1:00 AM52.3 °F26.6 °F37 %30.13 inSE (130°)12.7 mph
2:00 AM49.6 °F25.9 °F40 %30.12 inSSE (150°)9.2 mph
3:00 AM49.5 °F25.0 °F38 %30.12 inSSE (160°)8.1 mph
4:00 AM47.3 °F25.3 °F42 %30.14 inSSE (160°)5.8 mph
5:00 AM45.1 °F29.1 °F54 %30.14 inNE (50°)1.2 mph
6:00 AM42.6 °F28.9 °F58 %30.13 inSE (130°)2.3 mph
6:00 AM43.0 °F29.0 °F45 %30.13 inSE (130°)2.3 mph
7:00 AM43.5 °F28.6 °F56 %30.14 inSouth (170°)2.3 mph
8:00 AM47.3 °F28.2 °F48 %30.14 inSE (140°)5.8 mph
9:00 AM53.2 °F30.2 °F41 %30.14 inSE (140°)5.8 mph
10:00 AM60.3 °F30.6 °F33 %30.11 inSE (140°)5.8 mph
11:00 AM67.6 °F31.6 °F26 %30.07 inSE (140°)5.8 mph
12:00 PM73.6 °F31.1 °F21 %30.04 inSE (130°)5.8 mph
12:00 PM74.0 °F31.0 °F11 %30.04 inSE (130°)5.8 mph
1:00 PM76.1 °F27.7 °F17 %30.02 inSSW (210°)6.9 mph
2:00 PM78.8 °F24.6 °F14 %29.99 inWSW (240°)6.9 mph
3:00 PM79.9 °F22.1 °F12 %29.97 inNorth (350°)4.6 mph
4:00 PM79.7 °F23.5 °F13 %29.94 inWNW (300°)5.8 mph
5:00 PM81.3 °F22.6 °F11 %29.93 inNorth (360°)9.2 mph
6:00 PM81.1 °F23.0 °F12 %29.92 inNNE (20°)9.2 mph
7:00 PM79.3 °F24.3 °F13 %29.93 inNNE (20°)10.4 mph
8:00 PM75.7 °F22.5 °F14 %29.94 inNNE (30°)9.2 mph
9:00 PM70.2 °F27.3 °F20 %29.97 inNE (50°)9.2 mph
10:00 PM65.8 °F28.0 °F24 %30.00 inNE (50°)11.5 mph
11:00 PM61.3 °F26.8 °F27 %30.03 inNNE (30°)6.9 mph
Hourly data recorded from CWDZ, located miles away from Drumheller, Alberta







STORIES FROM OUR PARTNERS